Home   Weather   Tiraspol   Past weeks
Flag for Moldova

Past Weather in Tiraspol, Moldova — Yesterday and Last 2 Weeks

Now
54 °F

Clear.


Feels Like: 52 °F
Forecast: 73 / 44 °F
Wind: 6 mph from West

Location: Chisinau International Airport

Current Time: Oct 17, 2019 at 9:33:59 pm

Latest Report: Oct 17, 2019 at 9:00 pm


Visibility: 10 mi

Pressure: 30.09 "Hg

Humidity: 77%

Dew Point: 46 °F

Location of TiraspolLocation

Past Weather in Tiraspol — Graph

°F

Tiraspol Temperature Yesterday

Maximum temperature yesterday: 75 °F (at 4:30 pm)
Minimum temperature yesterday: 48 °F (at 7:00 am)
Average temperature yesterday: 58 °F

High & Low Weather Summary for the Past Weeks

 TemperatureHumidityPressure
High82 °F (Oct 3, 3:00 pm)100% (Oct 5, 6:00 am)30.27 "Hg (Oct 5, 6:00 am)
Low32 °F (Oct 8, 7:30 am)31% (Oct 10, 4:30 pm)29.65 "Hg (Oct 3, 4:00 pm)
Average55 °F74%30.03 "Hg
* Reported Oct 2 8:00 pm — Oct 17 8:30 pm, Tiraspol. Weather by CustomWeather, © 2019

Note: Actual official high and low records may vary slightly from our data, if they occured in-between our weather recording intervals... More about our weather records

Advertising

Tiraspol Weather History for the Previous 24 Hours

Scroll right to see more
 ConditionsComfort  
Time TempWeatherWind HumidityBarometerVisibility
8:30 pm
Thu, Oct 17
57 °FClear.6 mph63%30.07 "Hg10 mi
8:00 pm59 °FClear.No wind59%30.07 "Hg5 mi
7:30 pm59 °FClear.2 mph59%30.09 "Hg10 mi
7:00 pm59 °FClear.2 mph59%30.07 "Hg10 mi
5:30 pm72 °FSunny.5 mph36%30.07 "Hg10 mi
5:00 pm73 °FSunny.1 mph36%30.07 "Hg10 mi
4:30 pm75 °FSunny.1 mph36%30.07 "Hg10 mi
4:00 pm75 °FPassing clouds.3 mph31%30.09 "HgN/A
3:30 pm73 °FPassing clouds.3 mph36%30.09 "HgN/A
3:00 pm73 °FPassing clouds.3 mph38%30.09 "HgN/A
2:30 pm72 °FPassing clouds.5 mph41%30.09 "HgN/A
2:00 pm70 °FPassing clouds.3 mph46%30.09 "HgN/A
1:30 pm68 °FSunny.3 mph53%30.09 "Hg10 mi
1:00 pm66 °FSunny.2 mph56%30.12 "Hg10 mi
12:30 pm66 °FSunny.No wind60%30.12 "Hg10 mi
12:00 pm63 °FSunny.2 mph68%30.12 "Hg10 mi
11:30 am61 °FSunny.2 mph77%30.12 "Hg10 mi
11:00 am54 °FPassing clouds.5 mph100%30.12 "HgN/A
10:30 am52 °FScattered clouds.No wind94%30.12 "Hg5 mi
10:00 am48 °FFog.3 mph100%30.12 "Hg0 mi
9:30 am46 °FCool.5 mph100%30.12 "Hg0 mi
9:00 am46 °FFog.1 mph100%30.12 "Hg0 mi
8:30 am46 °FCool.3 mph100%30.09 "Hg0 mi
8:00 am46 °FFog.6 mph100%30.09 "Hg0 mi
7:30 am46 °FCool.5 mph93%30.09 "Hg0 mi
7:00 am46 °FCool.1 mph100%30.09 "Hg0 mi
6:30 am48 °FCool.3 mph94%30.09 "Hg0 mi
6:00 am46 °FFog.3 mph100%30.09 "Hg0 mi
5:30 am48 °FFog.3 mph94%30.09 "Hg0 mi
5:00 am45 °FFog.No wind93%30.09 "Hg1 mi
4:30 am45 °FQuite cool.2 mph93%30.09 "Hg1 mi
4:00 am46 °FCool.1 mph93%30.09 "Hg1 mi
3:30 am43 °FClear.No wind93%30.09 "Hg10 mi
3:00 am48 °FClear.1 mph94%30.09 "Hg4 mi
2:30 am46 °FClear.1 mph93%30.09 "Hg10 mi
2:00 am48 °FClear.1 mph87%30.09 "Hg10 mi
1:30 am52 °FClear.No wind82%30.09 "Hg10 mi
1:00 am54 °FClear.2 mph77%30.09 "Hg10 mi
12:30 am54 °FClear.2 mph77%30.09 "Hg10 mi
12:00 am54 °FPassing clouds.3 mph77%30.09 "HgN/A
11:30 pm
Wed, Oct 16
55 °FClear.6 mph77%30.09 "Hg10 mi
11:00 pm57 °FPassing clouds.3 mph67%30.09 "HgN/A
10:30 pm57 °FPassing clouds.5 mph67%30.09 "HgN/A
10:00 pm57 °FClear.8 mph63%30.09 "Hg10 mi
9:30 pm63 °FClear.10 mph64%30.09 "Hg10 mi
9:00 pm63 °FClear.8 mph49%30.09 "Hg10 mi
Weather by CustomWeather, © 2019

See weather overview